Wind_Speed
16 15 15 14 14 14 14 15 15 16 17 18 19 21 23 26 25 22 18 11 10 16 15 14 9 13 8 15 15 11 3 6 6 8 5 7 9 21 23 27 22 16 24 21 16
18 17 17 17 16 16 16 17 17 17 19 19 21 22 23 26 27 23 13 8 10 9 14 15 14 15 13 13 9 5 3 6 1 4 2 3 11 13 12 24 24 29 27 26 23
20 19 19 19 18 18 18 18 18 19 20 21 22 23 23 23 22 3 4 5 9 15 22 16 12 18 15 19 11 6 6 4 5 10 11 3 11 16 25 11 21 25 23 19 15
21 21 21 20 20 20 20 20 20 20 21 22 23 24 23 17 6 4 15 19 19 17 13 8 12 15 6 6 19 2 6 4 7 5 6 5 10 11 26 19 23 22 20 17 14
23 22 22 22 21 22 22 22 22 21 22 22 23 24 22 9 21 19 17 18 17 8 6 10 13 15 6 8 11 2 6 3 8 5 3 3 3 12 22 22 21 19 16 13 11
24 24 23 23 23 23 23 23 23 22 22 22 22 22 18 10 12 10 17 18 8 4 11 14 9 10 8 8 5 6 8 10 5 10 9 5 10 12 20 22 20 18 17 17 15
28 28 27 26 24 24 24 24 23 22 22 21 21 23 21 30 21 18 14 15 11 10 12 8 11 7 11 7 11 4 6 8 12 12 6 11 2 8 28 23 23 19 16 14 13
33 32 30 29 28 25 24 25 24 23 22 21 21 21 16 27 29 21 16 20 18 11 11 9 7 10 11 9 8 4 3 4 9 15 7 12 5 7 29 28 25 22 19 18 13
14 19 25 25 30 30 28 30 26 25 24 19 19 13 17 10 16 13 20 21 17 16 14 10 6 9 10 3 4 4 6 8 12 18 7 5 4 5 27 27 27 25 24 20 14
20 16 12 12 9 15 21 26 26 25 23 19 20 12 20 19 18 15 10 15 19 15 13 12 6 3 2 2 6 7 9 7 5 7 6 8 5 14 29 27 26 29 27 23 20
27 22 21 17 15 12 12 7 7 7 15 15 11 14 20 9 7 8 11 9 13 16 8 12 3 7 12 11 12 11 3 5 2 2 4 7 8 13 23 23 27 33 31 30 23
19 19 16 12 12 12 6 3 6 7 12 18 26 35 32 23 13 17 16 13 15 13 8 8 13 11 16 14 7 5 3 6 5 7 6 8 8 7 19 22 31 31 34 32 24
12 15 20 20 16 15 11 9 10 13 8 9 24 29 33 33 30 28 21 22 9 11 12 13 11 18 17 11 3 5 4 5 7 6 2 7 4 7 7 21 28 32 36 32 26
10 9 20 17 10 15 19 15 6 5 4 6 10 14 28 32 21 35 27 20 9 13 15 12 20 16 3 6 4 6 6 6 7 6 5 4 5 5 8 15 16 24 33 33 26
12 14 15 18 6 9 2 12 9 9 4 1 8 5 5 29 10 28 42 31 17 16 7 8 7 9 8 8 9 6 8 2 4 4 3 2 4 6 4 9 13 19 35 34 31
14 14 17 16 18 11 4 15 11 4 8 6 5 5 8 29 24 4 30 36 27 17 18 17 18 8 4 6 4 2 3 2 3 2 5 6 8 5 11 14 13 21 32 30 24
16 15 18 14 23 14 12 19 3 4 5 6 5 8 9 9 19 19 5 18 16 16 22 19 22 17 11 3 1 4 6 1 2 1 7 10 10 14 4 13 20 22 29 31 31
20 18 21 22 22 18 17 4 5 12 10 9 3 9 11 7 10 18 15 9 9 17 3 14 14 18 8 9 6 7 7 5 5 4 3 4 7 1 7 21 26 28 34 33 26
22 23 26 24 21 26 14 8 10 8 9 5 7 6 8 9 6 13 15 11 10 15 18 3 7 6 16 5 15 5 11 9 6 2 0 4 2 6 10 11 19 23 31 30 26
25 27 34 26 24 22 6 7 8 15 11 2 8 7 3 6 11 11 11 8 16 16 12 7 4 4 3 6 14 6 3 6 1 4 5 5 7 5 8 8 8 13 23 26 26
24 17 31 31 23 14 8 10 13 18 22 6 5 7 10 11 2 5 4 9 8 11 14 14 11 4 4 2 9 5 10 3 5 5 4 0 5 5 8 10 10 13 24 27 31
30 6 16 23 16 6 9 7 10 13 20 9 2 6 13 10 12 13 11 15 12 8 5 10 6 8 7 5 3 5 6 6 4 4 3 3 5 6 8 10 14 12 14 22 25
10 10 19 39 10 13 15 23 10 10 18 5 5 3 3 6 4 6 14 3 0 7 6 3 3 4 2 4 2 2 2 6 4 3 6 4 5 4 9 9 17 19 18 20 18
9 2 12 30 33 19 22 25 25 18 18 16 5 8 6 7 9 5 2 4 11 5 2 5 2 6 7 4 5 5 5 3 5 4 4 9 6 7 4 5 2 8 9 20 22
13 6 7 6 12 17 24 18 26 23 23 12 6 11 9 5 6 2 4 2 4 6 3 2 1 3 2 5 2 4 5 5 5 5 6 6 10 5 5 4 8 13 19 24 25
8 4 6 4 11 23 20 24 20 26 19 18 16 13 8 12 7 1 5 2 2 2 1 0 4 3 3 5 5 3 10 7 6 5 5 5 9 6 15 17 8 18 24 26 26
28 25 6 5 7 12 18 29 31 21 13 25 22 13 13 16 2 6 8 11 4 1 1 2 4 2 4 5 4 4 7 5 4 7 5 8 9 4 5 6 9 13 19 22 22
Wind_Direction
261 262 265 266 269 277 283 289 295 301 306 313 320 325 329 327 325 324 310 289 278 315 324 312 316 344 299 269 271 269 31 277 296 330 173 133 112 79 98 92 84 92 122 125 125
261 263 266 268 270 273 279 284 290 297 303 309 316 322 325 328 326 321 302 281 292 323 340 327 329 340 320 293 286 155 139 256 143 20 104 74 127 120 100 97 100 103 114 125 127
260 262 263 265 268 271 274 280 285 293 300 307 313 317 322 329 326 330 24 329 316 308 312 315 324 301 284 291 266 218 206 281 45 40 17 94 73 95 113 107 132 124 125 134 141
256 258 261 264 268 271 274 278 285 293 298 305 312 315 317 327 299 293 303 299 300 308 301 312 308 290 279 278 292 118 286 271 107 50 358 19 71 72 99 103 132 127 126 130 123
253 255 258 261 265 270 274 278 283 288 293 301 309 313 316 310 273 303 286 296 294 305 302 295 299 299 282 320 326 155 279 265 126 146 252 328 85 120 110 124 126 128 129 128 134
254 254 255 258 262 266 271 274 277 282 289 298 306 308 309 271 304 292 291 299 294 280 274 283 286 323 299 294 310 13 349 315 291 192 215 147 129 114 140 138 134 142 138 132 122
250 253 254 256 259 264 270 275 277 282 287 296 304 304 291 267 285 252 262 289 266 273 265 317 265 304 316 315 336 359 330 311 271 251 214 155 254 138 150 146 144 140 143 146 146
246 248 252 259 259 262 268 270 278 285 287 295 298 296 272 291 291 251 240 266 262 242 251 272 285 282 273 287 331 287 294 260 255 216 186 140 236 159 158 152 146 146 143 132 131
250 244 243 241 247 252 255 264 273 282 282 287 293 297 278 321 271 260 240 240 245 245 247 261 272 252 274 221 338 245 236 227 263 210 150 131 115 193 162 160 156 157 154 148 146
282 282 308 309 278 261 251 257 268 279 281 279 271 275 262 271 253 252 234 234 241 238 229 237 250 242 288 153 215 220 225 268 228 184 142 188 156 170 178 172 166 163 163 159 165
280 278 284 296 311 320 288 266 260 258 225 211 217 218 274 315 263 212 215 224 236 236 193 217 189 216 223 224 235 255 266 284 311 123 112 183 161 187 189 191 169 170 172 163 166
274 270 276 286 287 299 353 9 345 314 291 255 249 247 248 251 283 265 220 206 223 228 195 233 237 228 238 242 243 224 258 284 295 184 154 203 217 216 192 199 179 176 172 158 155
273 258 258 270 274 263 259 307 319 323 278 253 251 250 241 236 247 254 225 208 219 219 225 216 238 220 235 245 194 256 225 257 267 294 159 150 239 241 220 185 191 183 172 168 171
236 248 213 209 222 252 259 270 287 323 288 266 223 255 219 219 250 231 224 206 221 226 224 245 238 254 170 229 209 223 242 255 264 250 240 119 283 261 246 183 181 170 160 163 165
233 231 234 244 239 229 273 202 168 128 300 215 199 210 228 187 143 213 213 226 220 228 221 234 211 245 237 192 220 240 264 282 298 309 339 316 286 230 176 172 164 135 141 151 157
236 228 213 221 221 210 180 181 121 103 236 288 137 189 146 201 233 7 204 219 234 244 252 249 258 260 291 223 213 202 112 342 333 45 275 193 213 239 233 196 157 143 151 159 164
235 231 221 221 230 208 202 170 98 192 256 238 187 175 205 197 220 232 177 201 211 221 235 241 248 257 254 227 98 106 103 331 321 239 239 199 223 239 244 175 159 152 151 162 162
237 227 230 230 229 222 213 176 194 198 218 5 280 189 197 218 215 216 213 208 232 235 276 222 242 224 234 177 174 179 158 166 215 201 275 288 239 254 65 94 141 154 159 163 167
233 231 234 230 232 230 244 215 198 197 197 237 11 315 204 211 224 208 225 232 233 226 223 232 248 194 223 168 176 196 218 209 263 336 277 247 66 50 80 78 94 126 149 160 166
227 230 235 225 227 237 241 230 249 221 230 33 157 255 284 203 206 183 204 208 231 249 206 186 309 288 20 160 192 162 166 190 108 202 221 241 228 190 148 133 127 128 155 173 183
240 229 236 222 217 218 223 226 245 238 230 238 159 247 269 283 214 290 251 236 227 219 224 214 211 295 95 222 168 163 219 181 157 159 179 226 273 212 167 165 166 181 187 190 188
238 228 223 197 193 221 215 204 246 236 238 256 228 237 242 273 265 185 256 268 9 342 248 191 175 206 198 194 250 197 190 145 130 244 213 176 266 174 152 146 163 196 197 205 204
240 231 192 194 198 213 225 234 255 238 230 236 183 233 322 305 316 215 205 280 197 49 329 99 336 107 110 26 23 269 186 189 147 117 229 143 256 212 174 176 203 217 216 148 173
250 236 206 207 201 199 205 222 229 234 254 244 202 224 296 306 282 263 67 45 339 109 342 349 159 158 205 208 170 189 194 209 174 185 216 229 240 262 237 198 277 123 147 191 204
225 226 202 190 196 211 202 220 222 231 225 235 247 224 212 245 295 206 85 64 360 3 333 112 223 85 71 167 175 164 185 223 228 228 210 257 236 193 234 240 285 144 149 166 176
249 204 212 248 198 205 208 215 219 223 225 212 225 229 214 235 228 244 142 141 128 132 285 126 190 109 313 224 198 229 239 204 228 251 230 227 259 216 265 271 250 158 151 169 184
237 242 274 226 202 201 206 215 215 221 229 231 210 224 211 221 177 225 161 137 135 57 100 55 126 101 230 170 75 317 220 250 245 233 211 230 249 240 251 275 141 171 166 170 190
Height
1543 1543 1544 1543 1543 1543 1543 1542 1541 1540 1538 1536 1534 1532 1530 1526 1522 1520 1518 1517 1517 1515 1514 1513 1511 1509 1505 1505 1505 1506 1516 1521 1512 1503 1498 1492 1492 1496 1502 1504 1510 1515 1519 1525 1531
1540 1540 1541 1542 1541 1540 1540 1540 1539 1537 1536 1534 1532 1530 1528 1525 1520 1516 1515 1514 1515 1515 1513 1512 1510 1509 1507 1503 1503 1504 1517 1513 1503 1500 1498 1494 1496 1495 1504 1509 1518 1520 1525 1528 1531
1536 1537 1538 1539 1538 1538 1537 1538 1536 1535 1534 1532 1530 1528 1527 1524 1520 1514 1515 1515 1514 1514 1512 1512 1510 1510 1506 1502 1498 1498 1509 1502 1503 1501 1499 1497 1500 1501 1503 1515 1519 1520 1523 1526 1528
1532 1533 1534 1534 1535 1536 1535 1535 1534 1533 1532 1531 1528 1526 1524 1523 1525 1515 1514 1513 1514 1512 1510 1509 1508 1508 1507 1503 1497 1499 1495 1498 1500 1503 1502 1500 1502 1507 1505 1513 1520 1522 1524 1526 1527
1528 1529 1529 1531 1531 1532 1532 1531 1531 1530 1530 1528 1526 1524 1522 1521 1515 1513 1512 1511 1512 1510 1509 1510 1507 1505 1506 1499 1497 1495 1495 1495 1498 1501 1504 1502 1502 1506 1512 1513 1519 1524 1526 1527 1528
1524 1525 1525 1526 1527 1527 1528 1528 1528 1526 1527 1526 1523 1522 1522 1519 1511 1512 1510 1510 1509 1508 1508 1509 1507 1505 1502 1499 1498 1495 1496 1496 1496 1499 1501 1503 1505 1504 1514 1513 1519 1523 1526 1528 1529
1520 1520 1521 1522 1522 1523 1524 1524 1523 1523 1523 1521 1521 1519 1516 1509 1510 1509 1508 1507 1508 1506 1506 1507 1505 1506 1502 1499 1497 1494 1499 1497 1494 1496 1497 1499 1505 1509 1509 1513 1518 1522 1525 1527 1529
1513 1514 1515 1517 1518 1518 1520 1520 1520 1519 1518 1517 1518 1518 1506 1502 1503 1501 1502 1504 1506 1503 1504 1505 1504 1504 1503 1499 1497 1498 1500 1510 1490 1491 1495 1497 1511 1505 1506 1509 1515 1520 1524 1527 1529
1507 1506 1508 1510 1511 1512 1514 1516 1515 1515 1514 1513 1515 1516 1504 1496 1497 1493 1498 1499 1503 1501 1504 1504 1502 1503 1501 1502 1508 1500 1512 1504 1493 1481 1491 1496 1510 1505 1505 1508 1513 1517 1521 1524 1528
1504 1505 1505 1507 1506 1508 1508 1510 1510 1510 1510 1510 1510 1517 1500 1491 1493 1494 1495 1497 1498 1497 1502 1503 1502 1500 1501 1508 1518 1506 1503 1499 1498 1486 1488 1496 1501 1501 1503 1505 1509 1514 1519 1522 1525
1501 1502 1502 1506 1506 1506 1506 1507 1509 1507 1502 1497 1496 1496 1491 1491 1492 1493 1493 1494 1496 1495 1498 1499 1505 1504 1499 1496 1490 1491 1489 1492 1487 1482 1488 1495 1497 1500 1499 1502 1506 1508 1512 1517 1520
1493 1497 1499 1501 1502 1508 1506 1506 1505 1506 1497 1491 1489 1489 1488 1491 1492 1490 1491 1492 1493 1492 1493 1498 1498 1489 1487 1485 1487 1486 1490 1494 1486 1483 1487 1493 1493 1488 1492 1494 1497 1502 1508 1512 1517
1489 1490 1494 1493 1497 1505 1503 1504 1504 1505 1500 1483 1483 1477 1477 1487 1484 1485 1487 1486 1486 1490 1490 1493 1484 1481 1480 1482 1484 1487 1492 1493 1492 1482 1482 1489 1495 1489 1482 1487 1493 1497 1503 1508 1512
1487 1488 1489 1490 1495 1499 1500 1502 1501 1505 1502 1477 1471 1456 1462 1474 1471 1478 1479 1484 1483 1484 1485 1483 1478 1478 1476 1481 1480 1490 1482 1484 1486 1491 1503 1484 1514 1486 1478 1481 1486 1492 1497 1503 1511
1486 1488 1489 1491 1494 1494 1499 1498 1499 1502 1505 1458 1456 1453 1450 1461 1459 1462 1468 1475 1475 1478 1479 1476 1472 1476 1478 1476 1477 1484 1479 1483 1485 1492 1491 1491 1503 1485 1475 1482 1486 1488 1493 1499 1505
1482 1484 1485 1488 1490 1489 1495 1497 1498 1503 1496 1458 1451 1449 1452 1459 1456 1456 1460 1469 1473 1476 1473 1470 1468 1468 1470 1467 1470 1474 1481 1485 1488 1495 1512 1494 1498 1484 1475 1469 1482 1487 1491 1497 1503
1478 1481 1482 1484 1486 1488 1491 1494 1501 1492 1465 1452 1447 1446 1448 1453 1457 1458 1460 1464 1470 1479 1472 1470 1463 1464 1467 1471 1470 1476 1490 1516 1519 1517 1509 1480 1487 1474 1461 1456 1466 1477 1487 1495 1501
1475 1477 1478 1478 1483 1486 1486 1486 1481 1463 1457 1445 1444 1442 1448 1447 1451 1456 1456 1464 1464 1467 1469 1474 1471 1462 1460 1464 1475 1479 1487 1511 1509 1510 1500 1478 1480 1482 1466 1462 1469 1478 1486 1494 1500
1471 1472 1472 1473 1479 1481 1481 1471 1461 1454 1452 1451 1456 1454 1444 1443 1448 1452 1454 1461 1459 1460 1469 1470 1462 1448 1451 1456 1463 1477 1485 1480 1491 1491 1501 1492 1483 1478 1474 1475 1477 1483 1488 1493 1498
1464 1465 1461 1470 1475 1476 1474 1464 1456 1448 1447 1448 1463 1458 1451 1443 1448 1450 1453 1446 1453 1453 1451 1460 1473 1451 1449 1449 1456 1463 1468 1487 1494 1502 1504 1487 1479 1487 1482 1482 1483 1487 1491 1492 1494
1457 1456 1451 1462 1470 1473 1464 1461 1453 1447 1449 1452 1452 1456 1448 1448 1449 1459 1448 1444 1444 1444 1447 1449 1460 1462 1453 1458 1460 1469 1470 1473 1480 1488 1502 1505 1500 1478 1478 1478 1482 1483 1485 1486 1489
1449 1444 1444 1454 1463 1459 1456 1454 1446 1445 1446 1447 1445 1447 1448 1448 1444 1450 1458 1449 1443 1447 1444 1443 1453 1465 1460 1452 1454 1457 1463 1469 1494 1487 1487 1495 1503 1471 1474 1475 1478 1479 1480 1482 1485
1440 1439 1440 1443 1442 1450 1448 1447 1447 1442 1443 1442 1443 1447 1446 1448 1449 1438 1443 1447 1444 1446 1453 1447 1460 1465 1459 1462 1457 1459 1457 1460 1468 1478 1485 1509 1509 1473 1473 1473 1474 1474 1476 1479 1483
1436 1432 1432 1428 1428 1434 1438 1437 1438 1437 1443 1441 1440 1445 1447 1448 1442 1444 1449 1446 1448 1442 1451 1450 1447 1455 1461 1460 1459 1463 1459 1460 1468 1484 1482 1480 1486 1473 1470 1471 1472 1474 1472 1474 1475
1427 1423 1419 1415 1420 1425 1427 1427 1432 1437 1437 1438 1439 1438 1443 1449 1443 1443 1449 1450 1449 1449 1449 1451 1456 1460 1454 1452 1453 1455 1456 1459 1467 1468 1477 1479 1470 1468 1467 1466 1465 1468 1469 1471 1475
1418 1419 1416 1413 1415 1420 1422 1422 1421 1425 1430 1427 1434 1434 1440 1445 1445 1446 1448 1449 1451 1451 1451 1450 1460 1463 1468 1454 1454 1460 1456 1457 1463 1464 1464 1468 1465 1460 1460 1460 1460 1463 1465 1467 1469
1417 1414 1409 1406 1407 1412 1413 1404 1408 1415 1420 1423 1427 1433 1436 1436 1440 1441 1442 1445 1451 1454 1455 1456 1460 1466 1463 1452 1460 1471 1456 1460 1460 1457 1458 1463 1456 1456 1457 1456 1457 1459 1462 1464 1466